Home > Weather > Inverness > Past weeks

Flag for United Kingdom Past Weather in Inverness, Scotland, United Kingdom — Yesterday and Last 2 Weeks

Now
63 °F

Scattered clouds.


Feels Like: 63 °F
Forecast: 54 / 64 °F
Wind: 7 mph from Northeast

Location: Inverness / Dalcross

Current Time: Jul 24, 2016 at 11:55:21 AM

Latest Report: Jul 24, 2016 at 11:20 AM


Visibility: N/A

Pressure: 29.98 "Hg

Humidity: 73%

Dew Point: 54 °F

Location of InvernessLocation

Past Weather in Inverness — Graph

°F

Inverness Temperature Yesterday

Maximum temperature yesterday: 68 °F (at 4:20 PM)
Minimum temperature yesterday: 46 °F (at 4:20 AM)
Average temperature yesterday: 59 °F

High & Low Weather Summary for the Past Weeks

 TemperatureHumidityPressure
High79 °F (Jul 19, 2:20 PM)100% (Jul 9, 6:50 PM)30.24 "Hg (Jul 9, 6:50 PM)
Low46 °F (Jul 13, 1:20 AM)50% (Jul 21, 4:20 PM)29.39 "Hg (Jul 10, 5:50 PM)
Average59 °F83%29.88 "Hg
* Reported Jul 9 10:20 AM — Jul 24 10:20 AM, Inverness, Weather by CustomWeather, © 2016

Note: Actual official high and low records may vary slightly from our data, if they occured in-between our weather recording intervals... More about our weather records

Advertising

Inverness Weather History for the Previous 24 Hours

Scroll right to see more
 ConditionsComfort  
Time TempWeatherWind HumidityBarometerVisibility
10:20 AM
Sun, Jul 24
61 °FScattered clouds.3 mph77%30.01 "HgN/A
9:50 AM61 °FScattered clouds.5 mph77%30.01 "HgN/A
9:20 AM61 °FScattered clouds.5 mph83%30.01 "HgN/A
8:50 AM59 °FScattered clouds.5 mph82%30.01 "HgN/A
8:20 AM61 °FScattered clouds.3 mph83%30.01 "HgN/A
7:50 AM59 °FScattered clouds.3 mph88%30.01 "HgN/A
7:20 AM59 °FScattered clouds.6 mph88%30.01 "HgN/A
6:50 AM57 °FScattered clouds.6 mph88%30.01 "HgN/A
6:20 AM57 °FMore clouds than sun.6 mph88%30.01 "HgN/A
5:50 AM57 °FMostly cloudy.5 mph88%30.01 "HgN/A
5:20 AM55 °FOvercast.5 mph94%30.01 "HgN/A
4:50 AM57 °FPassing clouds.5 mph88%30.01 "HgN/A
4:20 AM55 °FPassing clouds.3 mph94%30.01 "HgN/A
3:50 AM57 °FCool.3 mph88%30.01 "HgN/A
3:20 AM57 °FPassing clouds.5 mph88%30.01 "HgN/A
2:50 AM57 °FPartly cloudy.8 mph88%30.01 "HgN/A
2:20 AM55 °FCool.8 mph94%30.01 "HgN/A
1:50 AM55 °FCool.6 mph88%30.01 "HgN/A
1:20 AM59 °FPassing clouds.9 mph88%30.01 "HgN/A
12:50 AM61 °FPassing clouds.15 mph83%30.01 "HgN/A
12:20 AM59 °FPassing clouds.13 mph88%30.01 "HgN/A
11:50 PM
Sat, Jul 23
59 °FCool.9 mph88%30.01 "HgN/A
11:20 PM57 °FCool.7 mph94%30.01 "HgN/A
10:50 PM55 °FPassing clouds.6 mph94%30.01 "HgN/A
10:20 PM59 °FScattered clouds.3 mph82%30.01 "HgN/A
9:50 PM61 °FScattered clouds.3 mph83%30.01 "HgN/A
9:20 PM61 °FScattered clouds.5 mph88%30.01 "HgN/A
8:50 PM64 °FScattered clouds.2 mph73%30.01 "HgN/A
8:20 PM64 °FPartly sunny.5 mph73%30.01 "HgN/A
7:50 PM63 °FScattered clouds.No wind88%30.01 "HgN/A
7:20 PM63 °FScattered clouds.No wind83%30.01 "HgN/A
6:50 PM64 °FPassing clouds.2 mph78%30.01 "HgN/A
6:20 PM66 °FPassing clouds.2 mph64%30.01 "HgN/A
5:50 PM66 °FPassing clouds.3 mph64%30.01 "HgN/A
5:20 PM68 °FScattered clouds.7 mph64%30.01 "HgN/A
4:50 PM66 °FPassing clouds.5 mph64%30.01 "HgN/A
4:20 PM68 °FPassing clouds.3 mph60%30.01 "HgN/A
3:50 PM66 °FPassing clouds.5 mph64%30.01 "HgN/A
3:20 PM66 °FPassing clouds.7 mph64%30.04 "HgN/A
2:50 PM66 °FPassing clouds.8 mph64%30.04 "HgN/A
2:20 PM64 °FPassing clouds.7 mph68%30.04 "HgN/A
1:50 PM66 °FPassing clouds.15 mph64%30.04 "HgN/A
1:20 PM66 °FPassing clouds.12 mph64%30.04 "HgN/A
12:50 PM64 °FPassing clouds.7 mph68%30.04 "HgN/A
12:20 PM64 °FPassing clouds.7 mph64%30.04 "HgN/A
11:50 AM63 °FPassing clouds.6 mph68%30.04 "HgN/A
11:20 AM63 °FPassing clouds.7 mph68%30.07 "HgN/A
Weather by CustomWeather, © 2016

See weather overviewHow to use our weather pages